GLO2005 SBEG-SBGL

Flight info

Callsign GLO2005
Flight time 3h 38m
Altitude 37000
Route GIKVI UZ6 MULUV UZ24 MAVGU
Aircraft B738/M-SDFGIKLORWXY/LB1

Departure

Time 2026-04-17 02:02
Airport Eduardo Gomes International Airport (SBEG)

Arrival

Time 2026-04-17 05:40
Airport Rio Galeão – Tom Jobim International Airport (SBGL)
Time Latitude Longitude Altitude Speed Heading
2026-04-17 01:39 -3.03276 -60.04581 269 ft 0 kts 357°
2026-04-17 01:55 -3.03298 -60.04580 269 ft 4 kts 352°
2026-04-17 01:55 -3.03324 -60.04574 269 ft 4 kts 340°
2026-04-17 01:55 -3.03347 -60.04562 269 ft 4 kts 308°
2026-04-17 01:56 -3.03353 -60.04548 269 ft 0 kts 265°
2026-04-17 01:57 -3.03353 -60.04549 269 ft 1 kts 265°
2026-04-17 01:57 -3.03354 -60.04568 269 ft 5 kts 267°
2026-04-17 01:58 -3.03355 -60.04623 269 ft 10 kts 271°
2026-04-17 01:58 -3.03354 -60.04713 269 ft 15 kts 263°
2026-04-17 01:58 -3.03405 -60.04820 269 ft 19 kts 230°
2026-04-17 01:58 -3.03517 -60.04914 269 ft 23 kts 224°
2026-04-17 01:59 -3.03595 -60.05059 269 ft 24 kts 254°
2026-04-17 01:59 -3.03638 -60.05217 269 ft 23 kts 255°
2026-04-17 01:59 -3.03675 -60.05369 269 ft 22 kts 261°
2026-04-17 01:59 -3.03690 -60.05521 269 ft 22 kts 269°
2026-04-17 02:00 -3.03691 -60.05669 269 ft 21 kts 270°
2026-04-17 02:00 -3.03691 -60.05814 269 ft 20 kts 270°
2026-04-17 02:00 -3.03690 -60.05953 269 ft 20 kts 270°
2026-04-17 02:00 -3.03691 -60.06088 269 ft 19 kts 265°
2026-04-17 02:01 -3.03782 -60.06167 269 ft 19 kts 188°
2026-04-17 02:01 -3.03858 -60.06094 270 ft 18 kts 90°
2026-04-17 02:01 -3.03859 -60.05847 269 ft 69 kts 90°
2026-04-17 02:01 -3.03861 -60.05128 269 ft 135 kts 90°
2026-04-17 02:02 -3.03863 -60.04002 341 ft 184 kts 90°
2026-04-17 02:02 -3.03873 -60.02695 1060 ft 186 kts 90°
2026-04-17 02:02 -3.03898 -60.01445 2079 ft 175 kts 89°
2026-04-17 02:02 -3.04192 -60.00221 2624 ft 198 kts 123°
2026-04-17 02:03 -3.05322 -59.99282 2870 ft 226 kts 145°
2026-04-17 02:03 -3.06713 -59.98403 3067 ft 251 kts 146°
2026-04-17 02:03 -3.08249 -59.97432 3528 ft 266 kts 146°
2026-04-17 02:03 -3.09825 -59.96427 4344 ft 269 kts 145°
2026-04-17 02:04 -3.11407 -59.95408 5168 ft 272 kts 145°
2026-04-17 02:04 -3.13003 -59.94371 5985 ft 275 kts 145°
2026-04-17 02:04 -3.14614 -59.93316 6756 ft 278 kts 144°
2026-04-17 02:04 -3.16237 -59.92249 7495 ft 281 kts 144°
2026-04-17 02:05 -3.17880 -59.91165 8239 ft 284 kts 144°
2026-04-17 02:05 -3.19538 -59.90067 8999 ft 287 kts 144°
2026-04-17 02:05 -3.21211 -59.88958 9745 ft 290 kts 144°
2026-04-17 02:05 -3.22916 -59.87827 10283 ft 301 kts 144°
2026-04-17 02:06 -3.24731 -59.86619 10439 ft 324 kts 144°
2026-04-17 02:06 -3.26669 -59.85330 10634 ft 344 kts 144°
2026-04-17 02:06 -3.28696 -59.83983 11075 ft 353 kts 144°
2026-04-17 02:06 -3.30752 -59.82618 11676 ft 357 kts 144°
2026-04-17 02:07 -3.32825 -59.81242 12313 ft 359 kts 144°
2026-04-17 02:07 -3.34920 -59.79850 12920 ft 363 kts 144°
2026-04-17 02:07 -3.37032 -59.78447 13520 ft 367 kts 144°
2026-04-17 02:07 -3.39171 -59.77025 14069 ft 370 kts 145°
2026-04-17 02:08 -3.41322 -59.75595 14610 ft 373 kts 145°
2026-04-17 02:08 -3.43466 -59.74169 15159 ft 375 kts 145°
2026-04-17 02:08 -3.45645 -59.72720 15698 ft 378 kts 145°
2026-04-17 02:08 -3.47845 -59.71257 16222 ft 381 kts 145°
2026-04-17 02:09 -3.50061 -59.69783 16748 ft 383 kts 145°
2026-04-17 02:09 -3.51539 -59.68801 17098 ft 385 kts 145°
2026-04-17 02:09 -3.53761 -59.67291 17610 ft 388 kts 142°
2026-04-17 02:09 -3.55861 -59.65582 18116 ft 390 kts 137°
2026-04-17 02:10 -3.57875 -59.63758 18549 ft 392 kts 136°
2026-04-17 02:10 -3.59876 -59.61884 18975 ft 395 kts 136°
2026-04-17 02:10 -3.61888 -59.59996 19402 ft 397 kts 136°
2026-04-17 02:10 -3.63916 -59.58110 19823 ft 400 kts 136°
2026-04-17 02:11 -3.65970 -59.56218 20238 ft 402 kts 137°
2026-04-17 02:11 -3.68040 -59.54327 20655 ft 405 kts 137°
2026-04-17 02:11 -3.70138 -59.52421 21044 ft 407 kts 137°
2026-04-17 02:11 -3.72243 -59.50515 21431 ft 410 kts 137°
2026-04-17 02:12 -3.74340 -59.48620 21813 ft 412 kts 137°
2026-04-17 02:12 -3.76472 -59.46694 22198 ft 414 kts 137°
2026-04-17 02:12 -3.78621 -59.44752 22565 ft 417 kts 137°
2026-04-17 02:12 -3.80782 -59.42800 22930 ft 419 kts 137°
2026-04-17 02:13 -3.82951 -59.40841 23287 ft 422 kts 137°
2026-04-17 02:13 -3.85136 -59.38866 23604 ft 424 kts 137°
2026-04-17 02:13 -3.87326 -59.36887 23904 ft 425 kts 137°
2026-04-17 02:13 -3.89528 -59.34896 24207 ft 427 kts 137°
2026-04-17 02:14 -3.91738 -59.32898 24504 ft 428 kts 137°
2026-04-17 02:14 -3.93933 -59.30914 24768 ft 431 kts 137°
2026-04-17 02:14 -3.96188 -59.28875 25043 ft 433 kts 137°
2026-04-17 02:14 -3.98398 -59.26876 25315 ft 434 kts 137°
2026-04-17 02:15 -4.00646 -59.24843 25610 ft 436 kts 137°
2026-04-17 02:15 -4.02896 -59.22808 25867 ft 437 kts 137°
2026-04-17 02:15 -4.05162 -59.20759 26115 ft 439 kts 137°
2026-04-17 02:15 -4.07438 -59.18700 26363 ft 441 kts 137°
2026-04-17 02:16 -4.09724 -59.16632 26621 ft 443 kts 137°
2026-04-17 02:16 -4.12014 -59.14561 26869 ft 445 kts 137°
2026-04-17 02:16 -4.14317 -59.12477 27108 ft 447 kts 137°
2026-04-17 02:16 -4.16624 -59.10389 27349 ft 448 kts 137°
2026-04-17 02:17 -4.18945 -59.08289 27589 ft 450 kts 137°
2026-04-17 02:17 -4.21269 -59.06186 27805 ft 452 kts 137°
2026-04-17 02:17 -4.23608 -59.04069 28036 ft 453 kts 137°
2026-04-17 02:17 -4.25958 -59.01942 28271 ft 455 kts 137°
2026-04-17 02:18 -4.28307 -58.99816 28470 ft 457 kts 137°
2026-04-17 02:18 -4.30671 -58.97676 28675 ft 458 kts 137°
2026-04-17 02:18 -4.33038 -58.95533 28879 ft 460 kts 137°
2026-04-17 02:18 -4.35417 -58.93378 29088 ft 461 kts 137°
2026-04-17 02:19 -4.37771 -58.91246 29305 ft 462 kts 137°
2026-04-17 02:19 -4.40160 -58.89083 29475 ft 464 kts 137°
2026-04-17 02:19 -4.42590 -58.86882 29660 ft 466 kts 137°
2026-04-17 02:19 -4.44969 -58.84727 29843 ft 467 kts 137°
2026-04-17 02:20 -4.47385 -58.82537 30044 ft 468 kts 137°
2026-04-17 02:20 -4.49794 -58.80354 30279 ft 467 kts 137°
2026-04-17 02:20 -4.52201 -58.78173 30560 ft 465 kts 137°
2026-04-17 02:20 -4.54596 -58.76003 30810 ft 464 kts 137°
2026-04-17 02:21 -4.56995 -58.73828 31027 ft 464 kts 137°
2026-04-17 02:21 -4.59392 -58.71653 31255 ft 464 kts 137°
2026-04-17 02:21 -4.61783 -58.69481 31519 ft 463 kts 137°
2026-04-17 02:21 -4.64171 -58.67310 31758 ft 463 kts 137°
2026-04-17 02:22 -4.66556 -58.65141 32000 ft 462 kts 137°
2026-04-17 02:22 -4.68934 -58.62979 32244 ft 462 kts 137°
2026-04-17 02:22 -4.71307 -58.60821 32522 ft 461 kts 137°
2026-04-17 02:22 -4.73681 -58.58662 32771 ft 460 kts 137°
2026-04-17 02:23 -4.76055 -58.56503 32994 ft 460 kts 137°
2026-04-17 02:23 -4.78427 -58.54346 33252 ft 459 kts 137°
2026-04-17 02:23 -4.80763 -58.52221 33518 ft 459 kts 137°
2026-04-17 02:23 -4.83121 -58.50077 33781 ft 458 kts 137°
2026-04-17 02:24 -4.85481 -58.47929 34014 ft 457 kts 137°
2026-04-17 02:24 -4.87834 -58.45789 34241 ft 457 kts 137°
2026-04-17 02:24 -4.90189 -58.43646 34450 ft 456 kts 137°
2026-04-17 02:24 -4.92536 -58.41510 34669 ft 456 kts 137°
2026-04-17 02:25 -4.94884 -58.39373 34900 ft 455 kts 137°
2026-04-17 02:25 -4.97224 -58.37243 35095 ft 455 kts 137°
2026-04-17 02:25 -4.99570 -58.35107 35267 ft 455 kts 137°
2026-04-17 02:25 -5.01916 -58.32972 35485 ft 455 kts 137°
2026-04-17 02:26 -5.04252 -58.30845 35709 ft 454 kts 138°
2026-04-17 02:26 -5.06589 -58.28716 35912 ft 453 kts 138°
2026-04-17 02:26 -5.08926 -58.26588 36076 ft 454 kts 138°
2026-04-17 02:26 -5.11259 -58.24463 36254 ft 453 kts 138°
2026-04-17 02:27 -5.13594 -58.22336 36462 ft 452 kts 138°
2026-04-17 02:27 -5.15924 -58.20213 36665 ft 452 kts 138°
2026-04-17 02:27 -5.18246 -58.18096 36839 ft 452 kts 138°
2026-04-17 02:28 -5.22922 -58.13837 36887 ft 454 kts 138°
2026-04-17 02:28 -5.27611 -58.09608 36893 ft 451 kts 138°
2026-04-17 02:29 -5.32263 -58.05430 36890 ft 448 kts 138°
2026-04-17 02:29 -5.36862 -58.01295 36896 ft 445 kts 138°
2026-04-17 02:30 -5.41461 -57.97154 36893 ft 443 kts 138°
2026-04-17 02:30 -5.46053 -57.93017 36898 ft 443 kts 138°
2026-04-17 02:31 -5.50641 -57.88882 36900 ft 444 kts 138°
2026-04-17 02:31 -5.55247 -57.84731 36905 ft 445 kts 138°
2026-04-17 02:32 -5.59839 -57.80590 36904 ft 447 kts 137°
2026-04-17 02:32 -5.64475 -57.76410 36900 ft 449 kts 137°
2026-04-17 02:33 -5.69133 -57.72208 36896 ft 450 kts 137°
2026-04-17 02:33 -5.73799 -57.67998 36900 ft 452 kts 137°
2026-04-17 02:34 -5.78482 -57.63772 36897 ft 452 kts 137°
2026-04-17 02:34 -5.83166 -57.59546 36900 ft 453 kts 137°
2026-04-17 02:35 -5.87834 -57.55331 36896 ft 453 kts 137°
2026-04-17 02:35 -5.94857 -57.48989 36897 ft 452 kts 137°
2026-04-17 02:36 -5.99531 -57.44766 36893 ft 452 kts 137°
2026-04-17 02:36 -6.04168 -57.40576 36896 ft 451 kts 137°
2026-04-17 02:37 -6.08831 -57.36363 36896 ft 451 kts 137°
2026-04-17 02:37 -6.13494 -57.32147 36898 ft 450 kts 137°
2026-04-17 02:38 -6.18148 -57.27938 36899 ft 450 kts 138°
2026-04-17 02:38 -6.22803 -57.23729 36898 ft 450 kts 138°
2026-04-17 02:39 -6.27458 -57.19517 36902 ft 450 kts 138°
2026-04-17 02:39 -6.32117 -57.15302 36899 ft 451 kts 138°
2026-04-17 02:40 -6.36759 -57.11101 36903 ft 451 kts 138°
2026-04-17 02:40 -6.41431 -57.06870 36902 ft 452 kts 138°
2026-04-17 02:41 -6.46104 -57.02638 36907 ft 452 kts 138°
2026-04-17 02:41 -6.50777 -56.98406 36902 ft 453 kts 138°
2026-04-17 02:42 -6.55460 -56.94163 36905 ft 453 kts 138°
2026-04-17 02:42 -6.60146 -56.89915 36907 ft 454 kts 138°
2026-04-17 02:43 -6.64841 -56.85659 36905 ft 454 kts 138°
2026-04-17 02:43 -6.69538 -56.81400 36905 ft 454 kts 138°
2026-04-17 02:44 -6.74231 -56.77144 36903 ft 454 kts 138°
2026-04-17 02:44 -6.78917 -56.72892 36904 ft 454 kts 138°
2026-04-17 02:45 -6.83608 -56.68635 36902 ft 454 kts 138°
2026-04-17 02:45 -6.88303 -56.64372 36903 ft 454 kts 138°
2026-04-17 02:46 -6.92960 -56.60144 36905 ft 453 kts 138°
2026-04-17 02:46 -6.97642 -56.55891 36902 ft 453 kts 138°
2026-04-17 02:47 -7.02328 -56.51634 36904 ft 453 kts 138°
2026-04-17 02:47 -7.07005 -56.47383 36902 ft 453 kts 138°
2026-04-17 02:48 -7.11686 -56.43127 36902 ft 453 kts 138°
2026-04-17 02:48 -7.16360 -56.38876 36900 ft 453 kts 138°
2026-04-17 02:49 -7.21006 -56.34650 36899 ft 452 kts 138°
2026-04-17 02:49 -7.25680 -56.30395 36899 ft 452 kts 138°
2026-04-17 02:50 -7.30346 -56.26149 36897 ft 452 kts 138°
2026-04-17 02:50 -7.35012 -56.21900 36904 ft 452 kts 138°
2026-04-17 02:51 -7.39676 -56.17650 36901 ft 452 kts 138°
2026-04-17 02:51 -7.44349 -56.13390 36899 ft 452 kts 138°
2026-04-17 02:52 -7.48979 -56.09167 36899 ft 452 kts 138°
2026-04-17 02:52 -7.53645 -56.04910 36901 ft 452 kts 138°
2026-04-17 02:53 -7.58306 -56.00657 36898 ft 452 kts 138°
2026-04-17 02:53 -7.62973 -55.96397 36899 ft 452 kts 138°
2026-04-17 02:54 -7.67629 -55.92145 36898 ft 452 kts 138°
2026-04-17 02:54 -7.72296 -55.87883 36903 ft 452 kts 138°
2026-04-17 02:55 -7.76937 -55.83642 36900 ft 452 kts 138°
2026-04-17 02:55 -7.81599 -55.79381 36901 ft 452 kts 138°
2026-04-17 02:56 -7.86265 -55.75115 36898 ft 452 kts 138°
2026-04-17 02:56 -7.90924 -55.70854 36901 ft 452 kts 138°
2026-04-17 02:57 -7.95578 -55.66597 36898 ft 452 kts 138°
2026-04-17 02:57 -8.00213 -55.62355 36900 ft 452 kts 138°
2026-04-17 02:58 -8.04896 -55.58068 36899 ft 452 kts 138°
2026-04-17 02:58 -8.09523 -55.53831 36899 ft 451 kts 138°
2026-04-17 02:59 -8.14178 -55.49567 36898 ft 451 kts 138°
2026-04-17 02:59 -8.18832 -55.45303 36900 ft 451 kts 138°
2026-04-17 03:00 -8.22695 -55.41762 36899 ft 451 kts 138°
2026-04-17 03:00 -8.27340 -55.37503 36901 ft 451 kts 138°
2026-04-17 03:01 -8.31989 -55.33239 36898 ft 451 kts 138°
2026-04-17 03:01 -8.36632 -55.28979 36899 ft 451 kts 138°
2026-04-17 03:02 -8.41278 -55.24714 36903 ft 451 kts 138°
2026-04-17 03:02 -8.45913 -55.20459 36906 ft 451 kts 138°
2026-04-17 03:03 -8.50529 -55.16220 36909 ft 451 kts 138°
2026-04-17 03:03 -8.55172 -55.11953 36906 ft 451 kts 138°
2026-04-17 03:04 -8.59818 -55.07684 36907 ft 452 kts 138°
2026-04-17 03:04 -8.64472 -55.03405 36907 ft 452 kts 138°
2026-04-17 03:05 -8.69125 -54.99126 36911 ft 452 kts 138°
2026-04-17 03:05 -8.73789 -54.94835 36910 ft 453 kts 138°
2026-04-17 03:06 -8.78455 -54.90540 36913 ft 454 kts 138°
2026-04-17 03:06 -8.83128 -54.86238 36910 ft 455 kts 138°
2026-04-17 03:07 -8.87776 -54.81957 36916 ft 455 kts 138°
2026-04-17 03:07 -8.92461 -54.77640 36914 ft 456 kts 139°
2026-04-17 03:08 -8.97153 -54.73315 36911 ft 457 kts 139°
2026-04-17 03:08 -9.01854 -54.68981 36916 ft 457 kts 139°
2026-04-17 03:09 -9.06551 -54.64647 36913 ft 457 kts 139°
2026-04-17 03:09 -9.11248 -54.60313 36916 ft 457 kts 139°
2026-04-17 03:10 -9.15940 -54.55981 36903 ft 456 kts 139°
2026-04-17 03:10 -9.20552 -54.51571 36908 ft 456 kts 137°
2026-04-17 03:11 -9.25012 -54.47062 36905 ft 455 kts 136°
2026-04-17 03:11 -9.29485 -54.42534 36902 ft 454 kts 136°
2026-04-17 03:12 -9.33962 -54.38034 36905 ft 453 kts 137°
2026-04-17 03:12 -9.38441 -54.33547 36901 ft 452 kts 137°
2026-04-17 03:13 -9.42911 -54.29071 36902 ft 451 kts 137°
2026-04-17 03:13 -9.47361 -54.24612 36901 ft 450 kts 137°
2026-04-17 03:14 -9.51813 -54.20148 36902 ft 450 kts 137°
2026-04-17 03:14 -9.56258 -54.15689 36900 ft 450 kts 137°
2026-04-17 03:15 -9.60703 -54.11229 36900 ft 450 kts 137°
2026-04-17 03:15 -9.65156 -54.06760 36900 ft 450 kts 137°
2026-04-17 03:16 -9.69606 -54.02290 36899 ft 451 kts 137°
2026-04-17 03:16 -9.74039 -53.97837 36898 ft 451 kts 137°
2026-04-17 03:17 -9.78505 -53.93348 36903 ft 452 kts 137°
2026-04-17 03:17 -9.82976 -53.88851 36898 ft 453 kts 137°
2026-04-17 03:18 -9.87461 -53.84341 36900 ft 454 kts 137°
2026-04-17 03:18 -9.92029 -53.79983 36898 ft 454 kts 139°
2026-04-17 03:19 -9.96697 -53.75662 36897 ft 455 kts 139°
2026-04-17 03:19 -10.01357 -53.71321 36901 ft 455 kts 139°
2026-04-17 03:20 -10.06018 -53.66949 36899 ft 455 kts 139°
2026-04-17 03:20 -10.10664 -53.62580 36898 ft 455 kts 139°
2026-04-17 03:21 -10.15311 -53.58209 36898 ft 455 kts 139°
2026-04-17 03:21 -10.19961 -53.53834 36893 ft 455 kts 139°
2026-04-17 03:22 -10.24601 -53.49467 36892 ft 455 kts 139°
2026-04-17 03:22 -10.29239 -53.45100 36897 ft 455 kts 139°
2026-04-17 03:23 -10.33875 -53.40734 36893 ft 454 kts 139°
2026-04-17 03:23 -10.38485 -53.36388 36893 ft 454 kts 139°
2026-04-17 03:24 -10.43108 -53.32020 36889 ft 454 kts 139°
2026-04-17 03:24 -10.47728 -53.27652 36890 ft 453 kts 139°
2026-04-17 03:25 -10.52344 -53.23286 36894 ft 453 kts 139°
2026-04-17 03:25 -10.56963 -53.18916 36894 ft 453 kts 139°
2026-04-17 03:26 -10.61575 -53.14550 36893 ft 453 kts 139°
2026-04-17 03:26 -10.66186 -53.10184 36895 ft 453 kts 139°
2026-04-17 03:27 -10.70791 -53.05821 36892 ft 453 kts 139°
2026-04-17 03:27 -10.75397 -53.01455 36893 ft 453 kts 139°
2026-04-17 03:28 -10.80010 -52.97081 36892 ft 453 kts 139°
2026-04-17 03:28 -10.84588 -52.92738 36890 ft 453 kts 139°
2026-04-17 03:29 -10.89205 -52.88356 36889 ft 453 kts 139°
2026-04-17 03:29 -10.93828 -52.83966 36894 ft 454 kts 139°
2026-04-17 03:30 -10.98444 -52.79582 36890 ft 454 kts 139°
2026-04-17 03:30 -11.03033 -52.75221 36894 ft 454 kts 139°
2026-04-17 03:31 -11.07653 -52.70828 36890 ft 454 kts 139°
2026-04-17 03:31 -11.12269 -52.66437 36891 ft 454 kts 139°
2026-04-17 03:32 -11.16883 -52.62046 36887 ft 454 kts 139°
2026-04-17 03:32 -11.21495 -52.57655 36892 ft 454 kts 139°
2026-04-17 03:33 -11.26111 -52.53259 36888 ft 454 kts 139°
2026-04-17 03:33 -11.30722 -52.48864 36893 ft 453 kts 139°
2026-04-17 03:34 -11.35295 -52.44504 36888 ft 453 kts 139°
2026-04-17 03:34 -11.39894 -52.40117 36895 ft 453 kts 139°
2026-04-17 03:35 -11.44496 -52.35725 36892 ft 453 kts 139°
2026-04-17 03:35 -11.49086 -52.31341 36892 ft 453 kts 139°
2026-04-17 03:36 -11.56043 -52.24821 36887 ft 452 kts 141°
2026-04-17 03:37 -11.60845 -52.20689 36890 ft 452 kts 142°
2026-04-17 03:37 -11.65666 -52.16565 36889 ft 452 kts 142°
2026-04-17 03:38 -11.70464 -52.12416 36891 ft 452 kts 142°
2026-04-17 03:38 -11.75254 -52.08248 36895 ft 453 kts 142°
2026-04-17 03:39 -11.80016 -52.04097 36888 ft 453 kts 142°
2026-04-17 03:39 -11.84811 -51.99916 36891 ft 453 kts 142°
2026-04-17 03:40 -11.89611 -51.95730 36885 ft 454 kts 142°
2026-04-17 03:40 -11.94407 -51.91545 36890 ft 454 kts 142°
2026-04-17 03:41 -11.99225 -51.87339 36888 ft 454 kts 142°
2026-04-17 03:41 -12.04032 -51.83140 36889 ft 455 kts 142°
2026-04-17 03:42 -12.08841 -51.78938 36892 ft 455 kts 142°
2026-04-17 03:42 -12.13652 -51.74732 36890 ft 455 kts 142°
2026-04-17 03:43 -12.18465 -51.70523 36885 ft 455 kts 142°
2026-04-17 03:43 -12.23250 -51.66335 36888 ft 455 kts 142°
2026-04-17 03:44 -12.28064 -51.62120 36883 ft 456 kts 142°
2026-04-17 03:44 -12.32884 -51.57898 36884 ft 456 kts 142°
2026-04-17 03:45 -12.37699 -51.53678 36885 ft 456 kts 142°
2026-04-17 03:45 -12.42518 -51.49452 36883 ft 456 kts 142°
2026-04-17 03:46 -12.47334 -51.45225 36881 ft 456 kts 142°
2026-04-17 03:46 -12.52148 -51.41000 36878 ft 456 kts 142°
2026-04-17 03:47 -12.56874 -51.36648 36877 ft 457 kts 139°
2026-04-17 03:47 -12.61466 -51.32207 36878 ft 457 kts 139°
2026-04-17 03:48 -12.66120 -51.27713 36875 ft 457 kts 139°
2026-04-17 03:48 -12.70761 -51.23263 36871 ft 457 kts 139°
2026-04-17 03:49 -12.75375 -51.18851 36873 ft 457 kts 139°
2026-04-17 03:49 -12.80021 -51.14409 36874 ft 457 kts 139°
2026-04-17 03:50 -12.84671 -51.09958 36876 ft 457 kts 139°
2026-04-17 03:50 -12.88536 -51.06257 36875 ft 457 kts 139°
2026-04-17 03:51 -12.93186 -51.01802 36873 ft 457 kts 139°
2026-04-17 03:51 -12.97837 -50.97344 36877 ft 458 kts 139°
2026-04-17 03:52 -13.02485 -50.92885 36871 ft 458 kts 139°
2026-04-17 03:52 -13.07137 -50.88421 36870 ft 458 kts 139°
2026-04-17 03:53 -13.11786 -50.83957 36873 ft 458 kts 139°
2026-04-17 03:53 -13.16434 -50.79491 36874 ft 458 kts 139°
2026-04-17 03:54 -13.21083 -50.75022 36871 ft 458 kts 139°
2026-04-17 03:54 -13.25723 -50.70558 36874 ft 457 kts 139°
2026-04-17 03:55 -13.30362 -50.66094 36874 ft 457 kts 139°
2026-04-17 03:55 -13.34967 -50.61663 36873 ft 456 kts 139°
2026-04-17 03:56 -13.39599 -50.57202 36870 ft 456 kts 139°
2026-04-17 03:56 -13.44227 -50.52743 36873 ft 456 kts 139°
2026-04-17 03:57 -13.48852 -50.48283 36872 ft 455 kts 139°
2026-04-17 03:57 -13.53467 -50.43830 36868 ft 455 kts 139°
2026-04-17 03:58 -13.58085 -50.39371 36867 ft 454 kts 139°
2026-04-17 03:58 -13.62693 -50.34920 36869 ft 454 kts 139°
2026-04-17 03:59 -13.67294 -50.30473 36874 ft 454 kts 140°
2026-04-17 03:59 -13.71865 -50.26052 36869 ft 454 kts 139°
2026-04-17 04:00 -13.76471 -50.21596 36870 ft 453 kts 139°
2026-04-17 04:00 -13.81061 -50.17152 36872 ft 453 kts 139°
2026-04-17 04:01 -13.85661 -50.12696 36875 ft 453 kts 139°
2026-04-17 04:01 -13.90255 -50.08243 36883 ft 453 kts 139°
2026-04-17 04:02 -13.94818 -50.03817 36872 ft 453 kts 139°
2026-04-17 04:02 -13.99410 -49.99362 36875 ft 453 kts 139°
2026-04-17 04:03 -14.03995 -49.94910 36883 ft 453 kts 139°
2026-04-17 04:03 -14.08592 -49.90444 36880 ft 454 kts 139°
2026-04-17 04:04 -14.13183 -49.85981 36882 ft 453 kts 139°
2026-04-17 04:04 -14.17765 -49.81524 36882 ft 453 kts 139°
2026-04-17 04:05 -14.22350 -49.77062 36879 ft 453 kts 139°
2026-04-17 04:05 -14.26929 -49.72603 36878 ft 453 kts 139°
2026-04-17 04:06 -14.31503 -49.68146 36886 ft 452 kts 139°
2026-04-17 04:06 -14.36048 -49.63715 36876 ft 452 kts 139°
2026-04-17 04:07 -14.40614 -49.59261 36886 ft 451 kts 139°
2026-04-17 04:07 -14.45175 -49.54809 36887 ft 451 kts 139°
2026-04-17 04:08 -14.49728 -49.50362 36891 ft 451 kts 139°
2026-04-17 04:08 -14.54276 -49.45917 36904 ft 450 kts 139°
2026-04-17 04:09 -14.58825 -49.41470 36907 ft 450 kts 139°
2026-04-17 04:09 -14.63366 -49.37027 36913 ft 450 kts 139°
2026-04-17 04:10 -14.67910 -49.32578 36903 ft 450 kts 139°
2026-04-17 04:10 -14.72446 -49.28134 36900 ft 450 kts 139°
2026-04-17 04:11 -14.76991 -49.23680 36904 ft 450 kts 139°
2026-04-17 04:11 -14.81533 -49.19225 36905 ft 450 kts 139°
2026-04-17 04:12 -14.86081 -49.14761 36905 ft 450 kts 139°
2026-04-17 04:12 -14.90596 -49.10327 36914 ft 451 kts 139°
2026-04-17 04:13 -14.95143 -49.05859 36913 ft 451 kts 139°
2026-04-17 04:13 -14.99692 -49.01386 36913 ft 451 kts 139°
2026-04-17 04:14 -15.04238 -48.96912 36918 ft 451 kts 139°
2026-04-17 04:14 -15.08792 -48.92422 36913 ft 451 kts 139°
2026-04-17 04:15 -15.13296 -48.87906 36916 ft 451 kts 139°
2026-04-17 04:15 -15.17766 -48.83396 36925 ft 451 kts 139°
2026-04-17 04:16 -15.22259 -48.78865 36925 ft 451 kts 139°
2026-04-17 04:16 -15.26751 -48.74337 36917 ft 451 kts 139°
2026-04-17 04:17 -15.31246 -48.69807 36922 ft 450 kts 139°
2026-04-17 04:17 -15.35725 -48.65290 36926 ft 450 kts 139°
2026-04-17 04:18 -15.40216 -48.60758 36932 ft 450 kts 139°
2026-04-17 04:18 -15.44691 -48.56240 36938 ft 450 kts 139°
2026-04-17 04:19 -15.49180 -48.51704 36940 ft 450 kts 139°
2026-04-17 04:19 -15.53628 -48.47207 36943 ft 449 kts 139°
2026-04-17 04:20 -15.58110 -48.42672 36942 ft 450 kts 139°
2026-04-17 04:20 -15.62611 -48.38115 36946 ft 450 kts 139°
2026-04-17 04:21 -15.67056 -48.33612 36951 ft 450 kts 139°
2026-04-17 04:21 -15.71536 -48.29071 36956 ft 450 kts 139°
2026-04-17 04:22 -15.76018 -48.24524 36970 ft 450 kts 139°
2026-04-17 04:22 -15.80489 -48.19987 36994 ft 450 kts 139°
2026-04-17 04:23 -15.84970 -48.15435 37020 ft 451 kts 139°
2026-04-17 04:23 -15.89455 -48.10877 37035 ft 451 kts 139°
2026-04-17 04:24 -15.93940 -48.06315 37051 ft 451 kts 139°
2026-04-17 04:24 -15.98428 -48.01749 37055 ft 451 kts 139°
2026-04-17 04:25 -16.02914 -47.97180 37042 ft 451 kts 139°
2026-04-17 04:25 -16.07372 -47.92637 37030 ft 451 kts 139°
2026-04-17 04:26 -16.11859 -47.88061 37010 ft 452 kts 139°
2026-04-17 04:26 -16.16355 -47.83473 36982 ft 452 kts 139°
2026-04-17 04:27 -16.20837 -47.78896 36956 ft 452 kts 139°
2026-04-17 04:27 -16.25324 -47.74312 36949 ft 452 kts 139°
2026-04-17 04:28 -16.29808 -47.69726 36954 ft 452 kts 139°
2026-04-17 04:28 -16.34292 -47.65138 36949 ft 452 kts 139°
2026-04-17 04:29 -16.38770 -47.60552 36951 ft 451 kts 139°
2026-04-17 04:29 -16.43219 -47.55994 36954 ft 451 kts 139°
2026-04-17 04:30 -16.47686 -47.51400 36952 ft 451 kts 138°
2026-04-17 04:30 -16.52148 -47.46795 36951 ft 451 kts 138°
2026-04-17 04:31 -16.56605 -47.42193 36947 ft 451 kts 138°
2026-04-17 04:31 -16.61057 -47.37594 36950 ft 451 kts 138°
2026-04-17 04:32 -16.65514 -47.32987 36947 ft 451 kts 138°
2026-04-17 04:32 -16.69970 -47.28377 36950 ft 451 kts 138°
2026-04-17 04:33 -16.74425 -47.23766 36943 ft 451 kts 138°
2026-04-17 04:33 -16.78883 -47.19148 36948 ft 452 kts 137°
2026-04-17 04:34 -16.85573 -47.12215 36939 ft 452 kts 138°
2026-04-17 04:34 -16.89371 -47.08477 36945 ft 451 kts 140°
2026-04-17 04:35 -16.94764 -47.03334 36947 ft 451 kts 140°
2026-04-17 04:35 -16.99383 -46.98892 36940 ft 451 kts 139°
2026-04-17 04:36 -17.03218 -46.95180 36929 ft 452 kts 139°
2026-04-17 04:36 -17.07826 -46.90710 36938 ft 452 kts 139°
2026-04-17 04:37 -17.12432 -46.86241 36931 ft 452 kts 139°
2026-04-17 04:37 -17.17105 -46.81845 36919 ft 450 kts 144°
2026-04-17 04:38 -17.22416 -46.78409 36927 ft 448 kts 152°
2026-04-17 04:38 -17.27836 -46.75179 36931 ft 448 kts 152°
2026-04-17 04:39 -17.33244 -46.71921 36924 ft 449 kts 151°
2026-04-17 04:39 -17.38640 -46.68627 36927 ft 449 kts 151°
2026-04-17 04:40 -17.43999 -46.65337 36927 ft 449 kts 151°
2026-04-17 04:40 -17.49388 -46.62024 36931 ft 449 kts 151°
2026-04-17 04:41 -17.54788 -46.58704 36932 ft 450 kts 150°
2026-04-17 04:41 -17.60186 -46.55384 36926 ft 450 kts 150°
2026-04-17 04:42 -17.65586 -46.52060 36930 ft 450 kts 150°
2026-04-17 04:42 -17.71000 -46.48725 36925 ft 451 kts 150°
2026-04-17 04:43 -17.76377 -46.45411 36928 ft 451 kts 150°
2026-04-17 04:43 -17.81797 -46.42068 36934 ft 452 kts 150°
2026-04-17 04:44 -17.87220 -46.38720 36938 ft 452 kts 150°
2026-04-17 04:44 -17.92650 -46.35366 36944 ft 453 kts 150°
2026-04-17 04:45 -17.98082 -46.32008 36959 ft 453 kts 150°
2026-04-17 04:45 -18.03515 -46.28647 36960 ft 453 kts 150°
2026-04-17 04:46 -18.08941 -46.25287 36967 ft 453 kts 150°
2026-04-17 04:46 -18.14336 -46.21944 36954 ft 452 kts 150°
2026-04-17 04:47 -18.19793 -46.18561 36955 ft 452 kts 150°
2026-04-17 04:47 -18.25205 -46.15202 36977 ft 451 kts 150°
2026-04-17 04:48 -18.30612 -46.11842 36961 ft 451 kts 150°
2026-04-17 04:48 -18.35982 -46.08501 36965 ft 451 kts 150°
2026-04-17 04:49 -18.41377 -46.05141 36961 ft 450 kts 150°
2026-04-17 04:49 -18.46767 -46.01783 36971 ft 450 kts 150°
2026-04-17 04:50 -18.52145 -45.98430 36963 ft 449 kts 150°
2026-04-17 04:50 -18.57519 -45.95076 36967 ft 448 kts 150°
2026-04-17 04:51 -18.62887 -45.91723 36966 ft 448 kts 150°
2026-04-17 04:51 -18.68246 -45.88374 36971 ft 447 kts 150°
2026-04-17 04:52 -18.73600 -45.85025 36967 ft 447 kts 150°
2026-04-17 04:52 -18.78917 -45.81696 36972 ft 446 kts 150°
2026-04-17 04:53 -18.84270 -45.78351 36965 ft 446 kts 150°
2026-04-17 04:55 -19.05737 -45.65301 36969 ft 444 kts 151°
2026-04-17 04:55 -19.11064 -45.62051 36968 ft 444 kts 151°
2026-04-17 04:56 -19.16412 -45.58785 36966 ft 444 kts 151°
2026-04-17 04:56 -19.21767 -45.55513 36967 ft 444 kts 151°
2026-04-17 04:57 -19.27112 -45.52244 36962 ft 444 kts 151°
2026-04-17 04:57 -19.32454 -45.48975 36960 ft 443 kts 151°
2026-04-17 04:58 -19.37792 -45.45696 36961 ft 443 kts 151°
2026-04-17 04:58 -19.43117 -45.42413 36966 ft 443 kts 151°
2026-04-17 04:59 -19.48442 -45.39128 36961 ft 442 kts 151°
2026-04-17 04:59 -19.53722 -45.35869 36962 ft 442 kts 151°
2026-04-17 05:00 -19.59032 -45.32589 36963 ft 441 kts 151°
2026-04-17 05:00 -19.64326 -45.29316 36958 ft 440 kts 151°
2026-04-17 05:01 -19.69610 -45.26048 36962 ft 439 kts 151°
2026-04-17 05:01 -19.74875 -45.22787 36953 ft 438 kts 151°
2026-04-17 05:02 -19.80139 -45.19526 36963 ft 437 kts 151°
2026-04-17 05:02 -19.85382 -45.16275 36971 ft 436 kts 151°
2026-04-17 05:03 -19.90594 -45.13068 36967 ft 435 kts 152°
2026-04-17 05:03 -19.95846 -45.09854 36966 ft 435 kts 152°
2026-04-17 05:04 -20.01076 -45.06647 36968 ft 434 kts 152°
2026-04-17 05:04 -20.06302 -45.03437 36969 ft 434 kts 152°
2026-04-17 05:05 -20.11522 -45.00227 36978 ft 433 kts 152°
2026-04-17 05:05 -20.16750 -44.97009 36975 ft 434 kts 152°
2026-04-17 05:06 -20.21978 -44.93789 36983 ft 434 kts 152°
2026-04-17 05:06 -20.27211 -44.90563 36980 ft 435 kts 152°
2026-04-17 05:07 -20.32414 -44.87352 36983 ft 435 kts 152°
2026-04-17 05:07 -20.37665 -44.84110 36984 ft 436 kts 152°
2026-04-17 05:08 -20.42921 -44.80861 36990 ft 436 kts 152°
2026-04-17 05:08 -20.48172 -44.77615 36990 ft 437 kts 153°
2026-04-17 05:09 -20.53396 -44.74271 36993 ft 438 kts 151°
2026-04-17 05:09 -20.58573 -44.70838 36995 ft 438 kts 151°
2026-04-17 05:10 -20.63759 -44.67407 36995 ft 439 kts 151°
2026-04-17 05:10 -20.68963 -44.63980 36673 ft 444 kts 151°
2026-04-17 05:11 -20.71558 -44.62271 36326 ft 441 kts 151°
2026-04-17 05:11 -20.74160 -44.60556 35876 ft 438 kts 151°
2026-04-17 05:11 -20.76739 -44.58856 35449 ft 435 kts 151°
2026-04-17 05:11 -20.79309 -44.57161 35012 ft 433 kts 151°
2026-04-17 05:12 -20.81883 -44.55498 34532 ft 432 kts 152°
2026-04-17 05:12 -20.84459 -44.53875 34102 ft 430 kts 152°
2026-04-17 05:12 -20.87039 -44.52258 33624 ft 428 kts 152°
2026-04-17 05:12 -20.89604 -44.50648 33203 ft 426 kts 153°
2026-04-17 05:13 -20.92156 -44.49038 32776 ft 423 kts 152°
2026-04-17 05:13 -20.94682 -44.47440 32367 ft 421 kts 152°
2026-04-17 05:13 -20.97189 -44.45852 31963 ft 418 kts 152°
2026-04-17 05:13 -20.99689 -44.44274 31565 ft 415 kts 153°
2026-04-17 05:14 -21.02176 -44.42719 31169 ft 413 kts 153°
2026-04-17 05:14 -21.04657 -44.41168 30779 ft 412 kts 153°
2026-04-17 05:14 -21.07123 -44.39626 30379 ft 410 kts 153°
2026-04-17 05:14 -21.09581 -44.38079 29978 ft 408 kts 153°
2026-04-17 05:15 -21.12018 -44.36533 29533 ft 406 kts 152°
2026-04-17 05:15 -21.14442 -44.34990 29104 ft 404 kts 152°
2026-04-17 05:15 -21.16849 -44.33458 28684 ft 401 kts 152°
2026-04-17 05:15 -21.19239 -44.31937 28277 ft 398 kts 152°
2026-04-17 05:16 -21.21616 -44.30426 27882 ft 395 kts 152°
2026-04-17 05:16 -21.23966 -44.28931 27484 ft 392 kts 152°
2026-04-17 05:16 -21.26270 -44.27457 27110 ft 389 kts 152°
2026-04-17 05:16 -21.28580 -44.25970 26724 ft 387 kts 152°
2026-04-17 05:17 -21.30881 -44.24487 26345 ft 384 kts 152°
2026-04-17 05:17 -21.33168 -44.23014 25962 ft 382 kts 152°
2026-04-17 05:17 -21.35441 -44.21549 25589 ft 380 kts 152°
2026-04-17 05:17 -21.37703 -44.20092 25222 ft 378 kts 152°
2026-04-17 05:18 -21.39948 -44.18645 24841 ft 376 kts 152°
2026-04-17 05:18 -21.42189 -44.17201 24466 ft 375 kts 152°
2026-04-17 05:18 -21.44417 -44.15765 24089 ft 373 kts 152°
2026-04-17 05:18 -21.46665 -44.14377 23716 ft 371 kts 155°
2026-04-17 05:19 -21.48955 -44.13121 23361 ft 368 kts 156°
2026-04-17 05:19 -21.51252 -44.11925 22954 ft 365 kts 157°
2026-04-17 05:19 -21.53513 -44.10763 22566 ft 363 kts 157°
2026-04-17 05:19 -21.55785 -44.09593 22193 ft 361 kts 157°
2026-04-17 05:20 -21.58040 -44.08425 21816 ft 358 kts 156°
2026-04-17 05:20 -21.60279 -44.07258 21439 ft 356 kts 156°
2026-04-17 05:20 -21.62500 -44.06095 21072 ft 354 kts 156°
2026-04-17 05:20 -21.64701 -44.04938 20705 ft 353 kts 156°
2026-04-17 05:21 -21.66905 -44.03778 20339 ft 351 kts 156°
2026-04-17 05:21 -21.69095 -44.02624 19978 ft 350 kts 156°
2026-04-17 05:21 -21.71272 -44.01475 19622 ft 348 kts 156°
2026-04-17 05:21 -21.73442 -44.00329 19248 ft 347 kts 156°
2026-04-17 05:22 -21.75613 -43.99183 18873 ft 347 kts 156°
2026-04-17 05:22 -21.77774 -43.98041 18496 ft 346 kts 156°
2026-04-17 05:22 -21.79939 -43.96897 18112 ft 345 kts 156°
2026-04-17 05:22 -21.82093 -43.95758 17739 ft 343 kts 156°
2026-04-17 05:23 -21.84233 -43.94626 17356 ft 341 kts 155°
2026-04-17 05:23 -21.86333 -43.93514 16999 ft 339 kts 155°
2026-04-17 05:23 -21.88449 -43.92394 16643 ft 338 kts 155°
2026-04-17 05:23 -21.90551 -43.91281 16292 ft 336 kts 155°
2026-04-17 05:24 -21.92642 -43.90174 15937 ft 334 kts 155°
2026-04-17 05:24 -21.94725 -43.89070 15588 ft 332 kts 155°
2026-04-17 05:24 -21.96123 -43.88329 15357 ft 331 kts 155°
2026-04-17 05:24 -21.98189 -43.87234 15013 ft 330 kts 155°
2026-04-17 05:25 -22.00245 -43.86144 14670 ft 328 kts 154°
2026-04-17 05:25 -22.02288 -43.85060 14322 ft 327 kts 154°
2026-04-17 05:25 -22.04323 -43.83980 13977 ft 326 kts 154°
2026-04-17 05:25 -22.06331 -43.82914 13611 ft 325 kts 154°
2026-04-17 05:26 -22.08356 -43.81839 13242 ft 323 kts 154°
2026-04-17 05:26 -22.10370 -43.80769 12885 ft 321 kts 154°
2026-04-17 05:26 -22.12370 -43.79706 12526 ft 319 kts 154°
2026-04-17 05:26 -22.14356 -43.78651 12192 ft 317 kts 154°
2026-04-17 05:27 -22.16325 -43.77603 11858 ft 315 kts 154°
2026-04-17 05:27 -22.18278 -43.76564 11514 ft 313 kts 154°
2026-04-17 05:27 -22.20224 -43.75529 11188 ft 311 kts 154°
2026-04-17 05:27 -22.22163 -43.74497 10852 ft 309 kts 154°
2026-04-17 05:28 -22.24086 -43.73473 10525 ft 308 kts 154°
2026-04-17 05:28 -22.25999 -43.72455 10232 ft 305 kts 154°
2026-04-17 05:28 -22.27877 -43.71454 10101 ft 296 kts 154°
2026-04-17 05:28 -22.29705 -43.70480 9930 ft 290 kts 154°
2026-04-17 05:29 -22.31512 -43.69517 9612 ft 289 kts 154°
2026-04-17 05:29 -22.33307 -43.68560 9301 ft 287 kts 154°
2026-04-17 05:29 -22.35073 -43.67618 9012 ft 285 kts 154°
2026-04-17 05:29 -22.36851 -43.66669 8719 ft 284 kts 154°
2026-04-17 05:30 -22.38616 -43.65728 8421 ft 283 kts 154°
2026-04-17 05:30 -22.40376 -43.64788 8131 ft 281 kts 154°
2026-04-17 05:30 -22.42127 -43.63853 7835 ft 280 kts 154°
2026-04-17 05:30 -22.43867 -43.62924 7553 ft 279 kts 154°
2026-04-17 05:31 -22.45602 -43.61997 7308 ft 276 kts 154°
2026-04-17 05:31 -22.47314 -43.61082 7046 ft 274 kts 154°
2026-04-17 05:31 -22.49025 -43.60167 6770 ft 273 kts 154°
2026-04-17 05:31 -22.50727 -43.59257 6487 ft 272 kts 154°
2026-04-17 05:32 -22.52422 -43.58351 6189 ft 271 kts 154°
2026-04-17 05:32 -22.54109 -43.57450 5906 ft 269 kts 154°
2026-04-17 05:32 -22.55765 -43.56562 5633 ft 269 kts 153°
2026-04-17 05:32 -22.57441 -43.55665 5342 ft 268 kts 153°
2026-04-17 05:33 -22.59110 -43.54771 5068 ft 267 kts 153°
2026-04-17 05:33 -22.60770 -43.53882 4795 ft 266 kts 153°
2026-04-17 05:33 -22.62426 -43.52996 4504 ft 265 kts 153°
2026-04-17 05:33 -22.64046 -43.52043 4211 ft 264 kts 141°
2026-04-17 05:34 -22.65279 -43.50605 3950 ft 259 kts 127°
2026-04-17 05:34 -22.66329 -43.49072 3793 ft 246 kts 125°
2026-04-17 05:34 -22.67292 -43.47609 3683 ft 232 kts 124°
2026-04-17 05:34 -22.68198 -43.46225 3587 ft 217 kts 124°
2026-04-17 05:35 -22.69040 -43.44940 3525 ft 203 kts 124°
2026-04-17 05:35 -22.69842 -43.43716 3452 ft 197 kts 124°
2026-04-17 05:35 -22.70625 -43.42524 3378 ft 188 kts 124°
2026-04-17 05:35 -22.71357 -43.41410 3231 ft 176 kts 124°
2026-04-17 05:36 -22.72044 -43.40364 3014 ft 165 kts 124°
2026-04-17 05:36 -22.72689 -43.39382 2838 ft 161 kts 124°
2026-04-17 05:36 -22.73338 -43.38394 2618 ft 159 kts 124°
2026-04-17 05:36 -22.73973 -43.37428 2404 ft 155 kts 125°
2026-04-17 05:37 -22.74593 -43.36485 2206 ft 154 kts 124°
2026-04-17 05:37 -22.75215 -43.35538 2004 ft 154 kts 125°
2026-04-17 05:37 -22.75829 -43.34603 1807 ft 154 kts 124°
2026-04-17 05:37 -22.76451 -43.33657 1612 ft 154 kts 124°
2026-04-17 05:38 -22.77068 -43.32718 1398 ft 153 kts 125°
2026-04-17 05:38 -22.77689 -43.31773 1202 ft 153 kts 125°
2026-04-17 05:38 -22.78306 -43.30835 1012 ft 152 kts 125°
2026-04-17 05:38 -22.78919 -43.29903 824 ft 151 kts 125°
2026-04-17 05:39 -22.79528 -43.28978 641 ft 150 kts 125°
2026-04-17 05:39 -22.80129 -43.28064 447 ft 149 kts 125°
2026-04-17 05:39 -22.80730 -43.27151 266 ft 148 kts 126°
2026-04-17 05:39 -22.81333 -43.26240 70 ft 148 kts 126°
2026-04-17 05:40 -22.81901 -43.25381 26 ft 123 kts 125°
2026-04-17 05:40 -22.82223 -43.24890 20 ft 44 kts 125°
2026-04-17 05:40 -22.82332 -43.24690 18 ft 21 kts 111°
2026-04-17 05:40 -22.82357 -43.24570 19 ft 16 kts 97°
2026-04-17 05:41 -22.82359 -43.24460 18 ft 15 kts 69°
2026-04-17 05:41 -22.82289 -43.24387 19 ft 14 kts 36°
2026-04-17 05:41 -22.82212 -43.24327 21 ft 13 kts 35°
2026-04-17 05:41 -22.82131 -43.24305 20 ft 13 kts 330°
2026-04-17 05:42 -22.82075 -43.24379 20 ft 13 kts 306°
2026-04-17 05:42 -22.82025 -43.24456 20 ft 12 kts 305°
2026-04-17 05:42 -22.81976 -43.24530 20 ft 12 kts 306°
2026-04-17 05:42 -22.81926 -43.24599 20 ft 12 kts 324°
2026-04-17 05:43 -22.81852 -43.24588 20 ft 11 kts 33°
2026-04-17 05:43 -22.81782 -43.24558 22 ft 11 kts 349°
2026-04-17 05:43 -22.81708 -43.24566 22 ft 11 kts 358°
2026-04-17 05:43 -22.81638 -43.24570 21 ft 8 kts 357°
2026-04-17 05:44 -22.81615 -43.24571 21 ft 1 kts 357°